Location: Altavilla Irpina
(41.0000°N, 14.7833°E)
Time: 20:53:41
(UTC+00:00)

Cosmos 2322 Rocket - Pass Details

Date: 19 May 2025
Orbit: 832 x 850 km, 71.0° (Epoch: 15 June)

Event Time Altitude Azimuth Distance (km) Brightness Sun altitude
Rises 22:52:26 0° 337° (NNW) 3,410 6.4 -29.0°
Reaches altitude 10° 22:54:53 10° 339° (NNW) 2,468 5.4 -29.0°
Enters shadow 23:00:19 77° 30° (NNE) 864 2.2 -29.0°
